When you browse on this site, cookies collect data to enhance your experience and personalize the content and advertising you see.
Visit our Privacy Policy to learn more. By continuing to use the site, you agree to this use of cookies and data.
  • In Latvia
  • List of Countries
  • For 7 days
  • Water Temperature
  • Satellite Maps
  • Weather Map
  • Weather Widgets
  • user-avatar
    Login

    Hourly Weather Bory

    Today, 18 December, Tuesday

    Time Temperature Precipitation Wind Pressure Humidity
    00:00 -4°C° 0 mm 1 mps 708 mmHg 89%
    01:00 -4°C° 0 mm 1 mps 708 mmHg 89%
    02:00 -4°C° 0 mm 1 mps 708 mmHg 88%
    03:00 -4°C° 0 mm 1 mps 708 mmHg 88%
    04:00 -3°C° 0 mm 1 mps 708 mmHg 88%
    05:00 -4°C° 0 mm 1 mps 708 mmHg 88%
    06:00 -4°C° 0 mm 1 mps 708 mmHg 88%
    07:00 -4°C° 0 mm 1 mps 708 mmHg 88%
    08:00 -3°C° 0 mm 1 mps 709 mmHg 86%
    09:00 -3°C° 0 mm 0 mps 709 mmHg 83%
    10:00 -2°C° 0 mm 0 mps 709 mmHg 81%
    11:00 -1°C° 0 mm 0 mps 709 mmHg 79%
    12:00 0°C° 0 mm 0 mps 709 mmHg 78%
    13:00 0°C° 0 mm 0 mps 709 mmHg 77%
    14:00 -1°C° 0 mm 0 mps 709 mmHg 81%
    15:00 -2°C° 0 mm 0 mps 709 mmHg 85%
    16:00 -3°C° 0 mm 0 mps 709 mmHg 88%
    17:00 -3°C° 0 mm 1 mps 709 mmHg 88%
    18:00 -3°C° 0 mm 1 mps 708 mmHg 89%
    19:00 -3°C° 0 mm 1 mps 708 mmHg 89%
    20:00 -3°C° 0 mm 1 mps 708 mmHg 88%
    21:00 -4°C° 0 mm 1 mps 708 mmHg 88%
    22:00 -4°C° 0 mm 1 mps 709 mmHg 88%
    23:00 -4°C° 0 mm 1 mps 708 mmHg 88%

    Tomorrow, 19 December, Wednesday

    Time Temperature Precipitation Wind Pressure Humidity
    00:00 -4°C° 0 mm 1 mps 708 mmHg 88%
    01:00 -4°C° 0 mm 1 mps 708 mmHg 87%
    02:00 -4°C° 0 mm 1 mps 708 mmHg 86%
    03:00 -4°C° 0 mm 1 mps 708 mmHg 85%
    04:00 -6°C° 0 mm 1 mps 708 mmHg 85%
    05:00 -6°C° 0 mm 1 mps 708 mmHg 83%
    06:00 -6°C° 0 mm 1 mps 708 mmHg 81%
    07:00 -7°C° 0 mm 2 mps 708 mmHg 80%
    08:00 -3°C° 0 mm 1 mps 708 mmHg 76%
    09:00 -2°C° 0 mm 1 mps 708 mmHg 73%
    10:00 -1°C° 0 mm 1 mps 708 mmHg 69%
    11:00 -2°C° 0 mm 2 mps 708 mmHg 68%
    12:00 -2°C° 0 mm 2 mps 708 mmHg 68%
    13:00 -1°C° 0 mm 2 mps 707 mmHg 67%
    14:00 -2°C° 0 mm 2 mps 707 mmHg 71%
    15:00 -3°C° 0 mm 2 mps 707 mmHg 76%
    16:00 -5°C° 0 mm 2 mps 706 mmHg 80%
    17:00 -5°C° 0 mm 2 mps 706 mmHg 80%
    18:00 -5°C° 0 mm 2 mps 706 mmHg 79%
    19:00 -6°C° 0 mm 2 mps 706 mmHg 79%
    20:00 -6°C° 0 mm 2 mps 706 mmHg 78%
    21:00 -6°C° 0 mm 2 mps 705 mmHg 77%
    22:00 -6°C° 0 mm 2 mps 705 mmHg 76%
    23:00 -3°C° 0 mm 1 mps 705 mmHg 75%

    Day after tomorrow, 20 December, Thursday

    Time Temperature Precipitation Wind Pressure Humidity
    00:00 -3°C° 0 mm 1 mps 705 mmHg 74%
    01:00 -3°C° 0 mm 1 mps 705 mmHg 73%
    02:00 -3°C° 0 mm 1 mps 705 mmHg 72%
    03:00 -3°C° 0 mm 1 mps 705 mmHg 71%
    04:00 -2°C° 0 mm 1 mps 704 mmHg 71%
    05:00 -2°C° 0 mm 1 mps 705 mmHg 71%
    06:00 -2°C° 0 mm 1 mps 705 mmHg 72%
    07:00 -2°C° 0 mm 1 mps 705 mmHg 73%
    08:00 -2°C° 0 mm 1 mps 705 mmHg 73%
    09:00 -3°C° 0 mm 2 mps 705 mmHg 74%
    10:00 -3°C° 0 mm 2 mps 705 mmHg 74%
    11:00 -3°C° 0 mm 2 mps 705 mmHg 75%
    12:00 -2°C° 0 mm 2 mps 704 mmHg 76%
    13:00 -2°C° 0 mm 2 mps 704 mmHg 77%
    14:00 -3°C° 0 mm 2 mps 704 mmHg 79%
    15:00 -3°C° 0 mm 2 mps 704 mmHg 82%
    16:00 -4°C° 0 mm 2 mps 704 mmHg 84%
    17:00 -4°C° 0 mm 2 mps 704 mmHg 85%
    18:00 -4°C° 0 mm 2 mps 704 mmHg 87%
    19:00 -4°C° 0 mm 2 mps 704 mmHg 88%
    20:00 -4°C° 0 mm 2 mps 704 mmHg 88%
    21:00 -4°C° 0 mm 2 mps 704 mmHg 88%
    22:00 -4°C° 0 mm 2 mps 704 mmHg 89%
    23:00 -4°C° 0.1 mm 2 mps 704 mmHg 89%

    21 December, Friday

    Time Temperature Precipitation Wind Pressure Humidity
    00:00 -4°C° 0.1 mm 2 mps 704 mmHg 90%
    01:00 -4°C° 0.1 mm 2 mps 704 mmHg 90%
    02:00 -4°C° 0.2 mm 2 mps 704 mmHg 91%
    03:00 -4°C° 0.2 mm 2 mps 704 mmHg 92%
    04:00 -3°C° 0.2 mm 2 mps 704 mmHg 92%
    05:00 -3°C° 0.2 mm 2 mps 704 mmHg 92%
    06:00 -3°C° 0.2 mm 2 mps 704 mmHg 93%
    07:00 -3°C° 0.2 mm 2 mps 704 mmHg 93%
    08:00 -3°C° 0 mm 2 mps 704 mmHg 91%
    09:00 -2°C° 0 mm 2 mps 704 mmHg 89%
    10:00 -1°C° 0 mm 3 mps 704 mmHg 87%
    11:00 -1°C° 0 mm 3 mps 704 mmHg 86%
    12:00 0°C° 0 mm 3 mps 704 mmHg 85%
    13:00 0°C° 0 mm 3 mps 704 mmHg 84%
    14:00 0°C° 0 mm 3 mps 703 mmHg 85%
    15:00 -1°C° 0 mm 3 mps 703 mmHg 87%
    16:00 -1°C° 0 mm 3 mps 702 mmHg 88%
    17:00 -1°C° 0.3 mm 3 mps 702 mmHg 88%
    18:00 -1°C° 0.3 mm 3 mps 701 mmHg 87%
    19:00 -1°C° 0.3 mm 3 mps 701 mmHg 87%
    20:00 -1°C° 0.7 mm 4 mps 700 mmHg 87%
    21:00 -1°C° 0.7 mm 4 mps 700 mmHg 86%
    22:00 -1°C° 0.7 mm 5 mps 699 mmHg 86%
    23:00 -1°C° 0.5 mm 5 mps 699 mmHg 86%

    22 December, Saturday

    Time Temperature Precipitation Wind Pressure Humidity
    00:00 -1°C° 0.5 mm 5 mps 699 mmHg 86%
    01:00 -1°C° 0.5 mm 6 mps 698 mmHg 87%
    02:00 0°C° 0.1 mm 5 mps 699 mmHg 88%
    03:00 0°C° 0.1 mm 5 mps 699 mmHg 89%
    04:00 0°C° 0.1 mm 5 mps 699 mmHg 90%
    05:00 0°C° 0 mm 5 mps 699 mmHg 89%
    06:00 0°C° 0 mm 5 mps 700 mmHg 89%
    07:00 0°C° 0 mm 5 mps 700 mmHg 89%
    08:00 0°C° 0 mm 4 mps 701 mmHg 88%
    09:00 0°C° 0 mm 4 mps 701 mmHg 88%
    10:00 0°C° 0 mm 4 mps 701 mmHg 87%
    11:00 +1°C° 0 mm 4 mps 701 mmHg 87%
    12:00 +1°C° 0 mm 4 mps 701 mmHg 86%
    13:00 +2°C° 0 mm 5 mps 700 mmHg 86%
    14:00 +1°C° 0.1 mm 5 mps 700 mmHg 87%
    15:00 +1°C° 0.1 mm 5 mps 700 mmHg 88%
    16:00 +1°C° 0.1 mm 5 mps 700 mmHg 89%
    17:00 +1°C° 1 mm 5 mps 699 mmHg 90%
    18:00 +1°C° 1 mm 5 mps 699 mmHg 91%
    19:00 +1°C° 1 mm 4 mps 699 mmHg 92%
    20:00 +1°C° 0.9 mm 4 mps 699 mmHg 92%
    21:00 +1°C° 0.9 mm 4 mps 699 mmHg 92%
    22:00 +1°C° 0.9 mm 4 mps 699 mmHg 92%
    23:00 +1°C° 0.1 mm 5 mps 699 mmHg 91%

    23 December, Sunday

    Time Temperature Precipitation Wind Pressure Humidity
    00:00 +1°C° 0.1 mm 5 mps 699 mmHg 90%
    01:00 +1°C° 0.1 mm 5 mps 700 mmHg 89%
    02:00 0°C° 0.2 mm 5 mps 700 mmHg 89%
    03:00 0°C° 0.2 mm 5 mps 700 mmHg 89%
    04:00 0°C° 0.2 mm 5 mps 700 mmHg 88%
    05:00 0°C° 0.1 mm 4 mps 701 mmHg 89%
    06:00 0°C° 0.1 mm 4 mps 701 mmHg 89%
    07:00 -1°C° 0.1 mm 4 mps 702 mmHg 89%
    08:00 0°C° 0.1 mm 4 mps 702 mmHg 88%
    09:00 0°C° 0.1 mm 4 mps 703 mmHg 87%
    10:00 0°C° 0.1 mm 4 mps 703 mmHg 86%
    11:00 0°C° 0.1 mm 5 mps 703 mmHg 85%
    12:00 0°C° 0.1 mm 5 mps 703 mmHg 84%
    13:00 0°C° 0.1 mm 5 mps 703 mmHg 83%
    14:00 0°C° 0.1 mm 5 mps 703 mmHg 84%
    15:00 0°C° 0.1 mm 5 mps 704 mmHg 85%
    16:00 -1°C° 0.1 mm 4 mps 704 mmHg 86%
    17:00 -1°C° 0.1 mm 4 mps 704 mmHg 87%
    18:00 -1°C° 0.1 mm 4 mps 704 mmHg 87%
    19:00 -1°C° 0.1 mm 4 mps 705 mmHg 87%
    20:00 -1°C° 0.1 mm 4 mps 705 mmHg 88%
    21:00 -1°C° 0.1 mm 4 mps 705 mmHg 88%
    22:00 -1°C° 0.1 mm 4 mps 706 mmHg 89%
    23:00 0°C° 0 mm 3 mps 706 mmHg 90%
    Show more